Time,TemperatureF,DewpointF,PressureIn,WindDirection,WindDirectionDegrees,WindSpeedMPH,WindSpeedGustMPH,Humidity,HourlyPrecipIn,Conditions,Clouds,dailyrainin,SoftwareType,DateUTC
2011-07-15 00:02:00,65.1,34.5,29.88,SE,135,0.0,0.0,32,0.00,,,0.00,open2300-1.11,2011-07-15 06:02:00,
2011-07-15 00:12:00,64.8,34.8,29.89,SE,135,0.0,0.0,33,0.00,,,0.00,open2300-1.11,2011-07-15 06:12:00,
2011-07-15 00:22:00,64.2,35.1,29.89,SE,135,0.0,0.0,34,0.00,,,0.00,open2300-1.11,2011-07-15 06:22:00,
2011-07-15 00:32:00,63.7,34.6,29.89,SE,135,0.0,0.0,34,0.00,,,0.00,open2300-1.11,2011-07-15 06:32:00,
2011-07-15 00:42:00,63.1,34.8,29.89,SE,135,0.0,0.0,35,0.00,,,0.00,open2300-1.11,2011-07-15 06:42:00,
2011-07-15 00:52:00,63.1,36.3,29.89,East,90,2.9,2.9,37,0.00,,,0.00,open2300-1.11,2011-07-15 06:52:00,
2011-07-15 01:02:00,63.1,34.8,29.89,East,90,0.0,2.9,35,0.00,,,0.00,open2300-1.11,2011-07-15 07:02:00,
2011-07-15 01:12:00,62.8,34.5,29.89,SSE,157,0.0,0.0,35,0.00,,,0.00,open2300-1.11,2011-07-15 07:12:00,
2011-07-15 01:22:00,62.2,34.7,29.89,South,180,0.0,0.0,36,0.00,,,0.00,open2300-1.11,2011-07-15 07:22:00,
2011-07-15 01:33:00,61.9,35.1,29.89,ESE,112,0.0,0.0,37,0.00,,,0.00,open2300-1.11,2011-07-15 07:33:00,
2011-07-15 01:42:00,61.5,34.8,29.89,SSE,157,0.0,0.0,37,0.00,,,0.00,open2300-1.11,2011-07-15 07:42:00,
2011-07-15 01:52:00,61.3,35.4,29.90,SSE,157,0.0,0.0,38,0.00,,,0.00,open2300-1.11,2011-07-15 07:52:00,
2011-07-15 02:02:00,61.5,35.5,29.90,East,90,0.0,1.8,38,0.00,,,0.00,open2300-1.11,2011-07-15 08:02:00,
2011-07-15 02:12:00,61.5,35.5,29.90,East,90,0.0,0.0,38,0.00,,,0.00,open2300-1.11,2011-07-15 08:12:00,
2011-07-15 02:22:00,61.9,35.1,29.91,East,90,0.0,1.3,37,0.00,,,0.00,open2300-1.11,2011-07-15 08:22:00,
2011-07-15 02:32:00,61.9,35.8,29.91,East,90,0.0,0.0,38,0.00,,,0.00,open2300-1.11,2011-07-15 08:32:00,
2011-07-15 02:42:00,61.5,35.5,29.90,SSW,202,0.0,0.0,38,0.00,,,0.00,open2300-1.11,2011-07-15 08:42:00,
2011-07-15 02:52:00,61.3,36.1,29.90,SE,135,0.0,0.0,39,0.00,,,0.00,open2300-1.11,2011-07-15 08:52:00,
2011-07-15 03:02:00,61.3,36.8,29.90,East,90,0.0,0.0,40,0.00,,,0.00,open2300-1.11,2011-07-15 09:02:00,
2011-07-15 03:12:00,61.2,35.9,29.91,ESE,112,0.0,0.0,39,0.00,,,0.00,open2300-1.11,2011-07-15 09:12:00,
2011-07-15 03:22:00,61.0,36.5,29.91,East,90,2.0,6.0,40,0.00,,,0.00,open2300-1.11,2011-07-15 09:22:00,
2011-07-15 03:32:00,60.8,35.6,29.91,SE,135,0.0,3.8,39,0.00,,,0.00,open2300-1.11,2011-07-15 09:32:00,
2011-07-15 03:42:00,60.6,36.2,29.91,ESE,112,0.0,0.0,40,0.00,,,0.00,open2300-1.11,2011-07-15 09:42:00,
2011-07-15 03:52:00,61.0,36.5,29.91,SW,225,0.0,7.6,40,0.00,,,0.00,open2300-1.11,2011-07-15 09:52:00,
2011-07-15 04:02:00,60.1,35.7,29.92,NE,45,0.0,0.0,40,0.00,,,0.00,open2300-1.11,2011-07-15 10:02:00,
2011-07-15 04:12:00,59.7,35.3,29.92,SSE,157,0.0,0.0,40,0.00,,,0.00,open2300-1.11,2011-07-15 10:12:00,
2011-07-15 04:22:00,59.4,35.6,29.91,ESE,112,0.0,0.0,41,0.00,,,0.00,open2300-1.11,2011-07-15 10:22:00,
2011-07-15 04:32:00,59.2,35.4,29.91,East,90,0.0,1.3,41,0.00,,,0.00,open2300-1.11,2011-07-15 10:32:00,
2011-07-15 04:42:00,58.8,35.1,29.92,SSW,202,0.0,0.0,41,0.00,,,0.00,open2300-1.11,2011-07-15 10:42:00,
2011-07-15 04:52:00,58.6,35.5,29.92,SSE,157,0.0,0.0,42,0.00,,,0.00,open2300-1.11,2011-07-15 10:52:00,
2011-07-15 05:02:00,58.3,35.2,29.92,ENE,67,0.0,2.2,42,0.00,,,0.00,open2300-1.11,2011-07-15 11:02:00,
2011-07-15 05:12:00,58.3,35.8,29.93,East,90,0.0,3.8,43,0.00,,,0.00,open2300-1.11,2011-07-15 11:12:00,
2011-07-15 05:23:00,58.5,35.4,29.93,ENE,67,2.7,2.7,42,0.00,,,0.00,open2300-1.11,2011-07-15 11:23:00,
2011-07-15 05:33:00,58.3,35.2,29.93,SSE,157,0.0,2.7,42,0.00,,,0.00,open2300-1.11,2011-07-15 11:33:00,
2011-07-15 05:42:00,58.1,35.6,29.94,East,90,0.0,0.0,43,0.00,,,0.00,open2300-1.11,2011-07-15 11:42:00,
2011-07-15 05:52:00,58.1,35.6,29.94,East,90,0.0,0.0,43,0.00,,,0.00,open2300-1.11,2011-07-15 11:52:00,
2011-07-15 06:02:00,57.9,35.5,29.94,SE,135,0.0,0.0,43,0.00,,,0.00,open2300-1.11,2011-07-15 12:02:00,
2011-07-15 06:12:00,57.9,35.5,29.95,ENE,67,0.0,0.0,43,0.00,,,0.00,open2300-1.11,2011-07-15 12:12:00,
2011-07-15 06:22:00,57.6,35.1,29.95,South,180,0.0,0.0,43,0.00,,,0.00,open2300-1.11,2011-07-15 12:22:00,
2011-07-15 06:32:00,57.4,35.0,29.95,ENE,67,0.0,0.0,43,0.00,,,0.00,open2300-1.11,2011-07-15 12:32:00,
2011-07-15 06:42:00,57.4,35.0,29.96,SE,135,0.0,0.0,43,0.00,,,0.00,open2300-1.11,2011-07-15 12:42:00,
2011-07-15 06:52:00,57.4,34.4,29.95,East,90,0.0,0.0,42,0.00,,,0.00,open2300-1.11,2011-07-15 12:52:00,
2011-07-15 07:02:00,57.6,34.6,29.95,SE,135,0.0,0.0,42,0.00,,,0.00,open2300-1.11,2011-07-15 13:02:00,
2011-07-15 07:12:00,57.7,35.3,29.95,SE,135,0.0,0.0,43,0.00,,,0.00,open2300-1.11,2011-07-15 13:12:00,
2011-07-15 07:22:00,58.1,35.0,29.95,SE,135,0.0,0.0,42,0.00,,,0.00,open2300-1.11,2011-07-15 13:22:00,
2011-07-15 07:32:00,59.0,35.8,29.96,East,90,0.0,0.0,42,0.00,,,0.00,open2300-1.11,2011-07-15 13:32:00,
2011-07-15 07:42:00,59.7,35.3,29.96,SSE,157,0.0,1.3,40,0.00,,,0.00,open2300-1.11,2011-07-15 13:42:00,
2011-07-15 07:52:00,60.6,36.2,29.96,ENE,67,4.5,4.5,40,0.00,,,0.00,open2300-1.11,2011-07-15 13:52:00,
2011-07-15 08:02:00,61.7,36.4,29.96,ESE,112,0.0,4.5,39,0.00,,,0.00,open2300-1.11,2011-07-15 14:02:00,
2011-07-15 08:13:00,62.4,36.3,29.96,NNW,337,0.0,0.0,38,0.00,,,0.00,open2300-1.11,2011-07-15 14:13:00,
2011-07-15 08:22:00,63.3,36.4,29.96,SSE,157,0.0,0.0,37,0.00,,,0.00,open2300-1.11,2011-07-15 14:22:00,
2011-07-15 08:33:00,64.2,37.2,29.96,East,90,2.5,2.5,37,0.00,,,0.00,open2300-1.11,2011-07-15 14:33:00,
2011-07-15 08:42:00,65.1,36.6,29.96,East,90,0.0,2.5,35,0.00,,,0.00,open2300-1.11,2011-07-15 14:42:00,
2011-07-15 08:52:00,66.2,36.9,29.96,East,90,0.0,0.0,34,0.00,,,0.00,open2300-1.11,2011-07-15 14:52:00,
2011-07-15 09:02:00,66.7,37.3,29.96,ENE,67,0.0,0.0,34,0.00,,,0.00,open2300-1.11,2011-07-15 15:02:00,
2011-07-15 09:12:00,67.6,37.3,29.96,WNW,292,0.0,0.0,33,0.00,,,0.00,open2300-1.11,2011-07-15 15:12:00,
2011-07-15 09:22:00,68.2,37.1,29.96,NNE,22,0.0,0.0,32,0.00,,,0.00,open2300-1.11,2011-07-15 15:22:00,
2011-07-15 09:32:00,68.9,37.0,29.97,NNW,337,0.0,0.0,31,0.00,,,0.00,open2300-1.11,2011-07-15 15:32:00,
2011-07-15 09:42:00,69.6,37.6,29.96,WNW,292,0.0,1.3,31,0.00,,,0.00,open2300-1.11,2011-07-15 15:42:00,
2011-07-15 09:52:00,70.9,38.0,29.96,West,270,0.0,0.0,30,0.00,,,0.00,open2300-1.11,2011-07-15 15:52:00,
2011-07-15 10:02:00,71.8,37.8,29.96,West,270,0.9,0.9,29,0.00,,,0.00,open2300-1.11,2011-07-15 16:02:00,
2011-07-15 10:12:00,72.5,36.3,29.96,NNW,337,0.0,1.8,27,0.00,,,0.00,open2300-1.11,2011-07-15 16:12:00,
2011-07-15 10:22:00,73.2,35.9,29.96,NNW,337,0.0,2.7,26,0.00,,,0.00,open2300-1.11,2011-07-15 16:22:00,
2011-07-15 10:32:00,74.1,35.7,29.96,West,270,0.0,2.7,25,0.00,,,0.00,open2300-1.11,2011-07-15 16:32:00,
2011-07-15 10:42:00,75.0,36.4,29.96,NW,315,0.0,2.2,25,0.00,,,0.00,open2300-1.11,2011-07-15 16:42:00,
2011-07-15 10:52:00,75.6,35.8,29.96,WNW,292,0.9,0.9,24,0.00,,,0.00,open2300-1.11,2011-07-15 16:52:00,
2011-07-15 11:02:00,76.3,35.4,29.96,WNW,292,0.0,2.9,23,0.00,,,0.00,open2300-1.11,2011-07-15 17:02:00,
2011-07-15 11:13:00,76.8,35.9,29.95,North,0,0.0,0.0,23,0.00,,,0.00,open2300-1.11,2011-07-15 17:13:00,
2011-07-15 11:23:00,77.2,35.1,29.95,NNW,337,0.0,1.6,22,0.00,,,0.00,open2300-1.11,2011-07-15 17:23:00,
2011-07-15 11:32:00,77.9,35.7,29.95,NNW,337,0.0,3.1,22,0.00,,,0.00,open2300-1.11,2011-07-15 17:32:00,
2011-07-15 11:42:00,78.4,36.1,29.96,WNW,292,0.0,0.0,22,0.00,,,0.00,open2300-1.11,2011-07-15 17:42:00,
2011-07-15 11:52:00,79.0,35.5,29.95,SW,225,0.0,1.3,21,0.00,,,0.00,open2300-1.11,2011-07-15 17:52:00,
2011-07-15 12:02:00,79.5,36.0,29.95,WNW,292,0.0,0.0,21,0.00,,,0.00,open2300-1.11,2011-07-15 18:02:00,
2011-07-15 12:12:00,80.1,36.5,29.95,North,0,0.0,2.0,21,0.00,,,0.00,open2300-1.11,2011-07-15 18:12:00,
2011-07-15 12:22:00,80.6,37.0,29.94,WNW,292,0.0,0.0,21,0.00,,,0.00,open2300-1.11,2011-07-15 18:22:00,
2011-07-15 12:32:00,81.5,37.7,29.94,West,270,0.0,1.8,21,0.00,,,0.00,open2300-1.11,2011-07-15 18:32:00,
2011-07-15 12:42:00,82.2,38.3,29.94,NW,315,0.0,0.4,21,0.00,,,0.00,open2300-1.11,2011-07-15 18:42:00,
2011-07-15 12:52:00,82.8,38.7,29.94,WNW,292,3.1,3.1,21,0.00,,,0.00,open2300-1.11,2011-07-15 18:52:00,
2011-07-15 13:02:00,82.9,38.9,29.94,WNW,292,0.0,3.1,21,0.00,,,0.00,open2300-1.11,2011-07-15 19:02:00,
2011-07-15 13:12:00,83.1,39.0,29.93,East,90,0.0,0.0,21,0.00,,,0.00,open2300-1.11,2011-07-15 19:12:00,
2011-07-15 13:22:00,83.8,38.5,29.93,NNE,22,0.0,0.0,20,0.00,,,0.00,open2300-1.11,2011-07-15 19:22:00,
2011-07-15 13:32:00,84.2,38.8,29.92,NW,315,0.0,1.6,20,0.00,,,0.00,open2300-1.11,2011-07-15 19:32:00,
2011-07-15 13:42:00,84.7,39.3,29.92,NNW,337,5.8,5.8,20,0.00,,,0.00,open2300-1.11,2011-07-15 19:42:00,
2011-07-15 13:52:00,85.3,39.7,29.91,WSW,247,1.8,5.8,20,0.00,,,0.00,open2300-1.11,2011-07-15 19:52:00,
2011-07-15 14:02:00,85.8,38.4,29.91,WNW,292,3.6,4.0,19,0.00,,,0.00,open2300-1.11,2011-07-15 20:02:00,
2011-07-15 14:12:00,86.4,40.6,29.91,NNW,337,4.2,4.9,20,0.00,,,0.00,open2300-1.11,2011-07-15 20:12:00,
2011-07-15 14:22:00,86.7,39.2,29.91,WSW,247,0.0,5.1,19,0.00,,,0.00,open2300-1.11,2011-07-15 20:22:00,
2011-07-15 14:32:00,87.4,39.8,29.91,WSW,247,0.0,6.5,19,0.00,,,0.00,open2300-1.11,2011-07-15 20:32:00,
2011-07-15 14:42:00,87.8,38.4,29.91,NNW,337,0.0,9.6,18,0.00,,,0.00,open2300-1.11,2011-07-15 20:42:00,
2011-07-15 14:52:00,88.0,38.6,29.90,West,270,0.0,4.5,18,0.00,,,0.00,open2300-1.11,2011-07-15 20:52:00,
2011-07-15 15:03:00,88.0,40.3,29.90,SW,225,0.0,4.7,19,0.00,,,0.00,open2300-1.11,2011-07-15 21:03:00,
2011-07-15 15:12:00,88.2,38.7,29.90,SW,225,0.0,6.3,18,0.00,,,0.00,open2300-1.11,2011-07-15 21:12:00,
2011-07-15 15:22:00,88.7,39.2,29.89,WNW,292,6.0,6.0,18,0.00,,,0.00,open2300-1.11,2011-07-15 21:22:00,
2011-07-15 15:32:00,88.7,39.2,29.89,WSW,247,5.1,6.0,18,0.00,,,0.00,open2300-1.11,2011-07-15 21:32:00,
2011-07-15 15:42:00,89.2,39.6,29.89,West,270,0.0,5.1,18,0.00,,,0.00,open2300-1.11,2011-07-15 21:42:00,
2011-07-15 15:52:00,89.2,39.6,29.89,West,270,0.0,2.5,18,0.00,,,0.00,open2300-1.11,2011-07-15 21:52:00,
2011-07-15 16:02:00,88.7,39.2,29.90,WSW,247,6.3,6.3,18,0.00,,,0.00,open2300-1.11,2011-07-15 22:02:00,
2011-07-15 16:12:00,88.5,39.0,29.89,NW,315,0.0,6.3,18,0.00,,,0.00,open2300-1.11,2011-07-15 22:12:00,
2011-07-15 16:22:00,88.3,38.9,29.89,West,270,0.0,1.6,18,0.00,,,0.00,open2300-1.11,2011-07-15 22:22:00,
2011-07-15 16:32:00,88.0,38.6,29.88,SW,225,1.6,3.4,18,0.00,,,0.00,open2300-1.11,2011-07-15 22:32:00,
2011-07-15 16:42:00,88.0,40.3,29.88,WNW,292,1.6,4.0,19,0.00,,,0.00,open2300-1.11,2011-07-15 22:42:00,
2011-07-15 16:52:00,87.6,38.3,29.88,WSW,247,0.0,1.6,18,0.00,,,0.00,open2300-1.11,2011-07-15 22:52:00,
2011-07-15 17:02:00,87.6,38.3,29.88,SW,225,0.0,4.7,18,0.00,,,0.00,open2300-1.11,2011-07-15 23:02:00,
2011-07-15 17:12:00,87.6,38.3,29.88,West,270,0.0,0.0,18,0.00,,,0.00,open2300-1.11,2011-07-15 23:12:00,
2011-07-15 17:22:00,87.3,39.7,29.88,NW,315,0.0,6.0,19,0.00,,,0.00,open2300-1.11,2011-07-15 23:22:00,
2011-07-15 17:32:00,86.9,35.9,29.87,WSW,247,0.0,2.7,17,0.00,,,0.00,open2300-1.11,2011-07-15 23:32:00,
2011-07-15 17:42:00,86.5,35.6,29.86,WNW,292,0.0,1.3,17,0.00,,,0.00,open2300-1.11,2011-07-15 23:42:00,
2011-07-15 17:52:00,86.4,35.5,29.87,West,270,0.0,2.0,17,0.00,,,0.00,open2300-1.11,2011-07-15 23:52:00,
2011-07-15 18:02:00,86.2,38.7,29.87,WNW,292,0.0,2.9,19,0.00,,,0.00,open2300-1.11,2011-07-16 00:02:00,
2011-07-15 18:12:00,85.6,38.3,29.86,West,270,0.0,0.0,19,0.00,,,0.00,open2300-1.11,2011-07-16 00:12:00,
2011-07-15 18:22:00,85.6,38.3,29.86,WNW,292,0.0,2.2,19,0.00,,,0.00,open2300-1.11,2011-07-16 00:22:00,
2011-07-15 18:32:00,85.3,38.0,29.87,NNE,22,0.0,0.0,19,0.00,,,0.00,open2300-1.11,2011-07-16 00:32:00,
2011-07-15 18:42:00,84.9,34.3,29.86,WSW,247,0.0,0.0,17,0.00,,,0.00,open2300-1.11,2011-07-16 00:42:00,
2011-07-15 18:53:00,84.7,34.1,29.86,SE,135,0.0,0.0,17,0.00,,,0.00,open2300-1.11,2011-07-16 00:53:00,
2011-07-15 19:02:00,84.4,33.8,29.86,South,180,0.0,0.0,17,0.00,,,0.00,open2300-1.11,2011-07-16 01:02:00,
2011-07-15 19:12:00,84.4,33.8,29.85,South,180,0.0,0.0,17,0.00,,,0.00,open2300-1.11,2011-07-16 01:12:00,
2011-07-15 19:22:00,83.8,36.8,29.85,South,180,0.0,0.0,19,0.00,,,0.00,open2300-1.11,2011-07-16 01:22:00,
2011-07-15 19:32:00,83.3,36.4,29.85,SW,225,0.9,0.9,19,0.00,,,0.00,open2300-1.11,2011-07-16 01:32:00,
2011-07-15 19:42:00,82.9,36.1,29.85,SW,225,0.0,0.9,19,0.00,,,0.00,open2300-1.11,2011-07-16 01:42:00,
2011-07-15 19:52:00,82.6,37.5,29.85,WSW,247,0.0,0.0,20,0.00,,,0.00,open2300-1.11,2011-07-16 01:52:00,
2011-07-15 20:02:00,82.0,39.2,29.86,WSW,247,0.0,0.0,22,0.00,,,0.00,open2300-1.11,2011-07-16 02:02:00,
2011-07-15 20:12:00,81.0,38.3,29.85,WSW,247,0.0,0.0,22,0.00,,,0.00,open2300-1.11,2011-07-16 02:12:00,
2011-07-15 20:22:00,80.2,39.8,29.85,WSW,247,0.0,0.0,24,0.00,,,0.00,open2300-1.11,2011-07-16 02:22:00,
2011-07-15 20:32:00,79.3,41.1,29.86,WSW,247,0.0,0.0,26,0.00,,,0.00,open2300-1.11,2011-07-16 02:32:00,
2011-07-15 20:42:00,78.1,41.1,29.85,WSW,247,0.0,0.0,27,0.00,,,0.00,open2300-1.11,2011-07-16 02:42:00,
2011-07-15 20:52:00,77.0,42.3,29.86,WSW,247,0.0,0.0,29,0.00,,,0.00,open2300-1.11,2011-07-16 02:52:00,
2011-07-15 21:02:00,76.3,42.7,29.86,WSW,247,0.0,0.0,30,0.00,,,0.00,open2300-1.11,2011-07-16 03:02:00,
2011-07-15 21:12:00,75.6,42.0,29.86,WSW,247,0.0,0.0,30,0.00,,,0.00,open2300-1.11,2011-07-16 03:12:00,
2011-07-15 21:22:00,74.8,42.2,29.86,WSW,247,0.0,0.0,31,0.00,,,0.00,open2300-1.11,2011-07-16 03:22:00,
2011-07-15 21:32:00,74.1,42.3,29.86,WSW,247,0.0,0.0,32,0.00,,,0.00,open2300-1.11,2011-07-16 03:32:00,
2011-07-15 21:42:00,73.6,41.8,29.86,WSW,247,0.0,0.0,32,0.00,,,0.00,open2300-1.11,2011-07-16 03:42:00,
2011-07-15 21:52:00,72.7,41.8,29.86,WSW,247,0.0,0.0,33,0.00,,,0.00,open2300-1.11,2011-07-16 03:52:00,
2011-07-15 22:02:00,72.1,42.1,29.87,WSW,247,0.0,0.0,34,0.00,,,0.00,open2300-1.11,2011-07-16 04:02:00,
2011-07-15 22:12:00,71.2,41.3,29.87,WSW,247,0.0,0.0,34,0.00,,,0.00,open2300-1.11,2011-07-16 04:12:00,
2011-07-15 22:22:00,70.3,40.5,29.87,WSW,247,0.0,0.0,34,0.00,,,0.00,open2300-1.11,2011-07-16 04:22:00,
2011-07-15 22:32:00,69.6,40.6,29.87,WSW,247,0.0,0.0,35,0.00,,,0.00,open2300-1.11,2011-07-16 04:32:00,
2011-07-15 22:42:00,69.1,40.1,29.87,WSW,247,0.0,0.0,35,0.00,,,0.00,open2300-1.11,2011-07-16 04:42:00,
2011-07-15 22:52:00,68.7,39.0,29.88,WSW,247,0.0,0.0,34,0.00,,,0.00,open2300-1.11,2011-07-16 04:52:00,
2011-07-15 23:02:00,68.5,38.9,29.88,East,90,0.0,0.0,34,0.00,,,0.00,open2300-1.11,2011-07-16 05:02:00,
2011-07-15 23:12:00,68.4,38.0,29.88,East,90,0.0,0.0,33,0.00,,,0.00,open2300-1.11,2011-07-16 05:12:00,
2011-07-15 23:22:00,68.2,37.8,29.88,East,90,0.0,0.0,33,0.00,,,0.00,open2300-1.11,2011-07-16 05:22:00,
2011-07-15 23:32:00,68.5,37.4,29.88,East,90,6.0,6.0,32,0.00,,,0.00,open2300-1.11,2011-07-16 05:32:00,
2011-07-15 23:42:00,69.4,37.5,29.88,ENE,67,3.4,6.0,31,0.00,,,0.00,open2300-1.11,2011-07-16 05:42:00,
2011-07-15 23:52:00,70.0,37.2,29.89,ENE,67,0.0,3.4,30,0.00,,,0.00,open2300-1.11,2011-07-16 05:52:00,